Weather History for KIFA - June, 2013

Change the Weather History Date:

Thursday, June 20, 2013

  Actual Average Record
Temperature  
Mean Temperature 76 °F -  
Max Temperature 88 °F 81 °F 96 °F (1956)
Min Temperature 65 °F 59 °F 43 °F (1961)
Cooling Degree Days 12    
Growing Degree Days 26 (Base 50)    
Moisture  
Dew Point 61 °F    
Average Humidity 58    
Maximum Humidity 79    
Minimum Humidity 37    
Precipitation  
Precipitation 0.00 in - - ()
Sea Level Pressure  
Sea Level Pressure 30.01 in    
Wind  
Wind Speed 12 mph (SSE)    
Max Wind Speed 24 mph    
Max Gust Speed 30 mph    
Visibility 10 miles    
Events      
Averages and records for this station are not official NWS values.
T = Trace of Precipitation, MM = Missing Value Source: NWS Daily Summary

Daily Weather History Graph

Daily Weather History Graph

Search for Another Location

Airport or City:

Trip Planner

Search our weather history database for the weather conditions in past years. The results will help you decide how hot, cold, wet, or windy it might be!

Date:

Astronomy

Jun. 20, 2013 Rise Set
Actual Time 5:35 AM CDT 8:53 PM CDT
Civil Twilight 5:00 AM CDT 9:28 PM CDT
Nautical Twilight 4:15 AM CDT 10:13 PM CDT
Astronomical Twilight 3:20 AM CDT 11:09 PM CDT
Moon 5:54 PM CDT (6/20) 3:05 AM CDT (6/20)
Length of Visible Light 16h 27m
Length of Day
15h 17m
Waxing Gibbous, 89% of the Moon is Illuminated
Jun 20
Waxing Gibbous
Jun 23
Full
Jun 29
Last Quarter
Jul 8
New
Jul 15
First Quarter

Hourly Weather History & Observations

Time (CDT) Temp. Heat Index Dew Point Humidity Pressure Visibility Wind Dir Wind Speed Gust Speed Precip Events Conditions
12:15 AM 68.9 °F - 60.8 °F 75% 30.05 in 10.0 mi SSE 9.2 mph - N/A   Clear
12:35 AM 68.5 °F - 60.6 °F 76% 30.05 in 10.0 mi SSE 9.2 mph - N/A   Clear
12:55 AM 68.7 °F - 60.3 °F 74% 30.05 in 10.0 mi SSE 9.2 mph - N/A   Clear
1:15 AM 68.4 °F - 59.9 °F 74% 30.04 in 10.0 mi SSE 9.2 mph - N/A   Clear
1:35 AM 68.0 °F - 59.9 °F 75% 30.05 in 10.0 mi SE 8.1 mph - N/A   Clear
1:55 AM 67.6 °F - 59.9 °F 76% 30.05 in 10.0 mi SE 6.9 mph - N/A   Clear
2:15 AM 67.5 °F - 59.5 °F 76% 30.05 in 10.0 mi SSE 8.1 mph - N/A   Clear
2:35 AM 66.7 °F - 59.4 °F 77% 30.05 in 10.0 mi SSE 6.9 mph - N/A   Clear
2:55 AM 66.4 °F - 59.2 °F 78% 30.05 in 10.0 mi SSE 8.1 mph - N/A   Clear
3:15 AM 66.2 °F - 59.0 °F 78% 30.04 in 10.0 mi SSE 8.1 mph - N/A   Clear
3:35 AM 66.6 °F - 59.0 °F 77% 30.04 in 10.0 mi SE 8.1 mph - N/A   Clear
3:55 AM 66.2 °F - 59.0 °F 78% 30.04 in 10.0 mi SE 8.1 mph - N/A   Scattered Clouds
4:15 AM 65.7 °F - 59.0 °F 79% 30.04 in 10.0 mi SE 8.1 mph - N/A   Mostly Cloudy
4:35 AM 65.7 °F - 59.0 °F 79% 30.04 in 10.0 mi SE 8.1 mph - N/A   Scattered Clouds
4:55 AM 65.7 °F - 59.0 °F 79% 30.04 in 10.0 mi SE 9.2 mph - N/A   Clear
5:15 AM 65.5 °F - 58.8 °F 79% 30.04 in 10.0 mi SE 8.1 mph - N/A   Clear
5:35 AM 65.3 °F - 58.6 °F 79% 30.04 in 10.0 mi SSE 8.1 mph - N/A   Clear
5:55 AM 65.7 °F - 58.6 °F 78% 30.04 in 10.0 mi SSE 8.1 mph - N/A   Clear
6:15 AM 66.2 °F - 59.0 °F 78% 30.05 in 10.0 mi SSE 8.1 mph - N/A   Clear
6:35 AM 67.3 °F - 59.2 °F 75% 30.05 in 10.0 mi SSE 8.1 mph - N/A   Clear
6:55 AM 68.9 °F - 59.9 °F 73% 30.05 in 10.0 mi SSE 9.2 mph - N/A   Scattered Clouds
7:15 AM 70.0 °F - 59.7 °F 70% 30.05 in 10.0 mi SSE 11.5 mph - N/A   Scattered Clouds
7:35 AM 70.2 °F - 60.1 °F 70% 30.06 in 10.0 mi SSE 15.0 mph - N/A   Clear
7:55 AM 71.8 °F - 60.4 °F 67% 30.06 in 10.0 mi SSE 13.8 mph 18.4 mph N/A   Scattered Clouds
8:15 AM 73.6 °F - 60.8 °F 64% 30.05 in 10.0 mi SSE 15.0 mph 18.4 mph N/A   Scattered Clouds
8:35 AM 74.7 °F - 61.0 °F 62% 30.05 in 10.0 mi SSE 15.0 mph - N/A   Scattered Clouds
8:55 AM 75.9 °F - 61.2 °F 60% 30.05 in 10.0 mi SSE 18.4 mph 23.0 mph N/A   Scattered Clouds
9:15 AM 76.6 °F - 61.3 °F 59% 30.06 in 10.0 mi South 15.0 mph - N/A   Scattered Clouds
9:35 AM 78.1 °F - 61.5 °F 57% 30.06 in 10.0 mi SSE 15.0 mph - N/A   Clear
9:55 AM 79.5 °F - 61.9 °F 55% 30.06 in 10.0 mi SSE 18.4 mph 21.9 mph N/A   Clear
10:15 AM 80.6 °F 81.7 °F 62.2 °F 53% 30.04 in 10.0 mi SSE 15.0 mph - N/A   Clear
10:35 AM 81.3 °F 82.3 °F 62.1 °F 52% 30.04 in 10.0 mi SSE 16.1 mph 23.0 mph N/A   Clear
10:55 AM 82.6 °F 83.2 °F 61.9 °F 49% 30.04 in 10.0 mi SSE 17.3 mph 23.0 mph N/A   Clear
11:15 AM 82.8 °F 83.4 °F 61.9 °F 49% 30.04 in 10.0 mi SSE 16.1 mph 25.3 mph N/A   Clear
11:35 AM 84.2 °F 84.8 °F 62.1 °F 47% 30.03 in 10.0 mi SSE 17.3 mph 24.2 mph N/A   Clear
11:55 AM 85.1 °F 85.7 °F 61.9 °F 46% 30.03 in 10.0 mi SSE 17.3 mph 24.2 mph N/A   Clear
12:15 PM 85.6 °F 86.3 °F 62.4 °F 46% 30.02 in 10.0 mi SSE 19.6 mph 25.3 mph N/A   Clear
12:35 PM 85.8 °F 86.3 °F 62.1 °F 45% 30.02 in 10.0 mi South 19.6 mph 26.5 mph N/A   Scattered Clouds
12:55 PM 86.4 °F 86.8 °F 62.1 °F 44% 30.01 in 10.0 mi SSE 19.6 mph 27.6 mph N/A   Mostly Cloudy
1:15 PM 85.5 °F 85.4 °F 60.8 °F 43% 30.01 in 10.0 mi SSE 21.9 mph 29.9 mph N/A   Mostly Cloudy
1:35 PM 87.4 °F 87.2 °F 60.6 °F 40% 30.01 in 10.0 mi South 18.4 mph 27.6 mph N/A   Scattered Clouds
1:55 PM 88.0 °F 87.1 °F 58.8 °F 37% 30.00 in 10.0 mi South 19.6 mph 29.9 mph N/A   Scattered Clouds
2:15 PM 87.8 °F 87.1 °F 59.5 °F 38% 30.00 in 10.0 mi South 19.6 mph 26.5 mph N/A   Clear
2:35 PM 87.8 °F 86.9 °F 58.8 °F 37% 29.99 in 10.0 mi SSE 18.4 mph 27.6 mph N/A   Scattered Clouds
2:55 PM 87.8 °F 87.4 °F 59.7 °F 39% 29.99 in 10.0 mi SSE 20.7 mph 27.6 mph N/A   Scattered Clouds
3:15 PM 87.4 °F 87.2 °F 60.1 °F 40% 29.99 in 10.0 mi SSE 21.9 mph 27.6 mph N/A   Scattered Clouds
3:35 PM 87.8 °F 87.4 °F 59.7 °F 39% 29.99 in 10.0 mi SSE 17.3 mph 26.5 mph N/A   Scattered Clouds
3:55 PM 86.7 °F 86.3 °F 59.9 °F 40% 29.98 in 10.0 mi SSE 20.7 mph 27.6 mph N/A   Clear
4:15 PM 88.3 °F 88.1 °F 60.4 °F 39% 29.97 in 10.0 mi SSE 20.7 mph 28.8 mph N/A   Scattered Clouds
4:35 PM 88.3 °F 88.4 °F 61.0 °F 40% 29.97 in 10.0 mi SSE 17.3 mph 27.6 mph N/A   Clear
4:55 PM 87.6 °F 87.4 °F 60.4 °F 40% 29.97 in 10.0 mi SSE 18.4 mph 28.8 mph N/A   Scattered Clouds
5:15 PM 87.8 °F 87.4 °F 60.1 °F 39% 29.96 in 10.0 mi SE 21.9 mph 27.6 mph N/A   Clear
5:35 PM 87.8 °F 87.4 °F 59.9 °F 39% 29.95 in 10.0 mi SSE 23.0 mph - N/A   Clear
5:55 PM 87.6 °F 87.2 °F 59.7 °F 39% 29.95 in 10.0 mi SSE 20.7 mph 27.6 mph N/A   Clear
6:15 PM 87.1 °F 86.7 °F 59.9 °F 40% 29.94 in 10.0 mi SSE 20.7 mph 27.6 mph N/A   Clear
6:35 PM 86.2 °F 86.1 °F 60.4 °F 42% 29.94 in 10.0 mi SSE 20.7 mph 24.2 mph N/A   Clear
6:55 PM 86.0 °F 86.1 °F 60.8 °F 43% 29.94 in 10.0 mi SSE 20.7 mph - N/A   Clear
7:15 PM 85.3 °F 85.4 °F 61.0 °F 44% 29.94 in 10.0 mi SSE 24.2 mph 28.8 mph N/A   Clear
7:35 PM 84.7 °F 84.8 °F 60.8 °F 44% 29.94 in 10.0 mi SSE 20.7 mph 27.6 mph N/A   Clear
7:55 PM 83.7 °F 83.8 °F 60.4 °F 45% 29.94 in 10.0 mi SSE 20.7 mph 25.3 mph N/A   Clear
8:15 PM 83.3 °F 83.7 °F 61.2 °F 47% 29.95 in 10.0 mi SSE 17.3 mph 21.9 mph N/A   Mostly Cloudy
8:35 PM 82.4 °F 83.2 °F 62.2 °F 50% 29.95 in 10.0 mi SSE 15.0 mph 20.7 mph N/A   Mostly Cloudy
8:55 PM 81.5 °F 82.7 °F 62.6 °F 53% 29.96 in 10.0 mi SSE 15.0 mph - N/A   Mostly Cloudy
9:15 PM 81.3 °F 82.5 °F 62.6 °F 53% 29.96 in 10.0 mi SSE 15.0 mph - N/A   Overcast
9:35 PM 80.1 °F 81.4 °F 62.8 °F 55% 29.97 in 10.0 mi South 13.8 mph - N/A   Scattered Clouds
9:55 PM 79.7 °F - 63.1 °F 57% 29.97 in 10.0 mi SSE 11.5 mph - N/A   Mostly Cloudy
10:15 PM 79.0 °F - 63.5 °F 59% 29.97 in 10.0 mi SSE 10.4 mph - N/A   Mostly Cloudy
10:35 PM 78.6 °F - 63.3 °F 59% 29.98 in 10.0 mi SSE 10.4 mph - N/A   Scattered Clouds
10:55 PM 78.6 °F - 63.5 °F 60% 29.99 in 10.0 mi SSE 9.2 mph - N/A   Mostly Cloudy
11:15 PM 76.3 °F - 63.5 °F 64% 29.99 in 10.0 mi SSE 8.1 mph - N/A   Mostly Cloudy
11:35 PM 76.3 °F - 63.5 °F 64% 29.97 in 10.0 mi SE 10.4 mph - N/A   Scattered Clouds
11:55 PM 76.3 °F - 63.9 °F 65% 29.97 in 10.0 mi SE 12.7 mph - N/A   Clear